Location: ????????
(55.3155°N, 39.2900°E)
Time: 11:00:20
(UTC+00:00)

IDEFIX/ARIANE 42P - Pass Details

Date: 14 April 2024
Orbit: 783 x 799 km, 98.5° (Epoch: 27 May)

Event Time Altitude Azimuth Distance (km) Brightness Sun altitude
Rises 00:16:18 0° 13° (NNE) 3,289 6.8 -15.8°
Reaches altitude 10° 00:18:43 10° 7° (N) 2,357 5.8 -15.6°
Maximum altitude 00:23:37 45° 297° (WNW) 1,075 3.1 -15.1°
Enters shadow 00:26:34 22° 237° (WSW) 1,655 3.6 -14.8°
